Погода в Пиктоне

Новая Зеландия     41°17′15″S   174°00′11″E
темп.,
°C
ветер,
м/с
пор.,
м/с
влажн.,
%
обл.,
%
осадки,
мм/ч
давл.,
гПа
погр.,
м
1 августа, вс
вс100:00+7ююз2296100 0.0 101435
03:00+7ююз229796 0.0 101243
06:00+6ююз1197100 0.0 101229
09:00+8ююз1289100 0.0 101362
12:00+12ююв0162100 0.0 1011515
15:00+13с1264100 0.0 1009736
18:00+8сз1196100 0.0 100924
21:00+7зсз1197100 0.0 100914
2 августа, пн
пн200:00+6зсз0097100 0.0 100913
03:00+6зюз019885 0.0 100816
06:00+7з009699 0.1 100730
09:00+9с1194100 0.1 1006125
12:00+10ссв139599 0.2 1004321
15:00+11ссз348683 0.3 1000615
18:00+8ссз3596100 0.4 999228
21:00+8сз3686100 0.0 997384
3 августа, вт
вт300:00+7ссз1297100 0.9 996108
03:00+7юв1299100 2.6 994191
06:00+7ююв2399100 5.6 996302
09:00+6ююз3993100 1.8 1000891
12:00+8ююз2880100 2.1 1002690
15:00+10ююз255870 0.0 10041146
18:00+6ююз1172100 0.0 100833
21:00+3юз21840 0.0 101023
4 августа, ср
ср400:00+2юз11800 0.0 101123
03:00+2зюз11790 0.0 101221
06:00+1зюз11780 0.0 101316
09:00+5зсз016311 0.0 101355
12:00+11ссз124153 0.0 1012760
15:00+10ссз355387 0.0 1010994
18:00+5ссз2381100 0.0 100971
21:00+5сз2382100 0.0 100899
5 августа, чт
чт500:00+6сз1287100 0.1 100560
03:00+7ссв2498100 1.4 1002230
06:00+7ссв1499100 2.9 999315
09:00+8с129995 1.9 998103
12:00+12сз267935 2.0 995998
15:00+12ссз38695 0.0 9931138
18:00+8ссз1197100 0.0 99438
21:00+8сз1195100 0.1 99333